Tillbaka till svenska Fidonet
English   Information   Debug  
FILM   0/18
FNEWS_PUBLISH   4983
FN_SYSOP   42232
FN_SYSOP_OLD1   71952
FTP_FIDO   0/2
FTSC_PUBLIC   0/13976
FUNNY   0/4886
GENEALOGY.EUR   0/71
GET_INFO   105
GOLDED   0/408
HAM   4332/16712
HOLYSMOKE   0/6791
HOT_SITES   0/1
HTMLEDIT   0/71
HUB203   466
HUB_100   264
HUB_400   39
HUMOR   0/29
IC   0/2851
INTERNET   0/424
INTERUSER   0/3
IP_CONNECT   719
JAMNNTPD   0/233
JAMTLAND   0/47
KATTY_KORNER   0/41
LAN   0/16
LINUX-USER   0/19
LINUXHELP   0/1155
LINUX   0/22382
LINUX_BBS   0/957
mail   18.68
mail_fore_ok   249
MENSA   0/341
MODERATOR   0/102
MONTE   0/992
MOSCOW_OKLAHOMA   0/1245
MUFFIN   0/783
MUSIC   0/321
N203_STAT   938
N203_SYSCHAT   313
NET203   321
NET204   69
NET_DEV   0/10
NORD.ADMIN   0/101
NORD.CHAT   0/2572
NORD.FIDONET   189
NORD.HARDWARE   0/28
NORD.KULTUR   0/114
NORD.PROG   0/32
NORD.SOFTWARE   0/88
NORD.TEKNIK   0/58
NORD   0/453
OCCULT_CHAT   0/93
OS2BBS   0/787
OS2DOSBBS   0/580
OS2HW   0/42
OS2INET   0/37
OS2LAN   0/134
OS2PROG   0/36
OS2REXX   0/113
OS2USER-L   207
OS2   0/4831
OSDEBATE   0/18996
PASCAL   0/490
PERL   0/457
PHP   0/45
POINTS   0/405
POLITICS   0/29554
POL_INC   0/14731
PSION   103
R20_ADMIN   1133
R20_AMATORRADIO   0/2
R20_BEST_OF_FIDONET   16
R20_CHAT   0/897
R20_DEPP   0/3
R20_DEV   400
R20_ECHO2   1889
R20_ECHOPRES   0/35
R20_ESTAT   0/719
R20_FIDONETPROG...
...RAM.MYPOINT
  0/2
R20_FIDONETPROGRAM   0/22
R20_FIDONET   0/248
R20_FILEFIND   0/24
R20_FILEFOUND   0/22
R20_HIFI   0/3
R20_INFO2   3781
R20_INTERNET   0/12940
R20_INTRESSE   0/60
R20_INTR_KOM   0/99
R20_KANDIDAT.CHAT   42
R20_KANDIDAT   28
R20_KOM_DEV   112
R20_KONTROLL   0/13360
R20_KORSET   0/18
R20_LOKALTRAFIK   0/24
R20_MODERATOR   0/1852
R20_NC   76
R20_NET200   245
R20_NETWORK.OTH...
...ERNETS
  0/13
R20_OPERATIVSYS...
...TEM.LINUX
  0/44
R20_PROGRAMVAROR   0/1
R20_REC2NEC   534
R20_SFOSM   0/341
R20_SF   0/108
R20_SPRAK.ENGLISH   0/1
R20_SQUISH   107
R20_TEST   2
R20_WORST_OF_FIDONET   20
RAR   0/9
RA_MULTI   106
RA_UTIL   0/162
REGCON.EUR   0/2069
REGCON   0/13
SCIENCE   0/1206
SF   0/239
SHAREWARE_SUPPORT   0/5146
SHAREWRE   0/14
SIMPSONS   0/169
STATS_OLD1   0/2539.065
STATS_OLD2   0/2530
STATS_OLD3   0/2395.095
STATS_OLD4   0/1692.25
SURVIVOR   0/495
SYSOPS_CORNER   0/3
SYSOP   0/84
TAGLINES   0/112
TEAMOS2   0/4530
TECH   0/2617
TEST.444   0/105
TRAPDOOR   0/19
TREK   0/755
TUB   0/290
UFO   0/40
UNIX   0/1316
USA_EURLINK   0/102
USR_MODEMS   0/1
VATICAN   0/2740
VIETNAM_VETS   0/14
VIRUS   0/378
VIRUS_INFO   0/201
VISUAL_BASIC   0/473
WHITEHOUSE   0/5187
WIN2000   0/101
WIN32   0/30
WIN95   0/4291
WIN95_OLD1   0/70272
WINDOWS   0/1517
WWB_SYSOP   0/419
WWB_TECH   0/810
ZCC-PUBLIC   0/1
ZEC   4

 
4DOS   0/134
ABORTION   0/7
ALASKA_CHAT   0/506
ALLFIX_FILE   0/1313
ALLFIX_FILE_OLD1   0/7997
ALT_DOS   0/152
AMATEUR_RADIO   0/1039
AMIGASALE   0/14
AMIGA   0/331
AMIGA_INT   0/1
AMIGA_PROG   0/20
AMIGA_SYSOP   0/26
ANIME   0/15
ARGUS   0/924
ASCII_ART   0/340
ASIAN_LINK   0/651
ASTRONOMY   0/417
AUDIO   0/92
AUTOMOBILE_RACING   0/105
BABYLON5   0/17862
BAG   135
BATPOWER   0/361
BBBS.ENGLISH   0/382
BBSLAW   0/109
BBS_ADS   0/5290
BBS_INTERNET   0/507
BIBLE   0/3563
BINKD   0/1119
BINKLEY   0/215
BLUEWAVE   0/2173
CABLE_MODEMS   0/25
CBM   0/46
CDRECORD   0/66
CDROM   0/20
CLASSIC_COMPUTER   0/378
COMICS   0/15
CONSPRCY   0/899
COOKING   42003
COOKING_OLD1   0/24719
COOKING_OLD2   0/40862
COOKING_OLD3   0/37489
COOKING_OLD4   0/35496
COOKING_OLD5   9370
C_ECHO   0/189
C_PLUSPLUS   0/31
DIRTY_DOZEN   0/201
DOORGAMES   0/2333
DOS_INTERNET   0/196
duplikat   6102
ECHOLIST   0/18295
EC_SUPPORT   0/318
ELECTRONICS   0/359
ELEKTRONIK.GER   1534
ENET.LINGUISTIC   0/13
ENET.POLITICS   0/4
ENET.SOFT   0/11701
ENET.SYSOP   34332
ENET.TALKS   0/32
ENGLISH_TUTOR   0/2000
EVOLUTION   0/1335
FDECHO   0/217
FDN_ANNOUNCE   0/7068
FIDONEWS   25122
FIDONEWS_OLD1   0/49742
FIDONEWS_OLD2   0/35949
FIDONEWS_OLD3   0/30874
FIDONEWS_OLD4   0/37224
FIDO_SYSOP   12973
FIDO_UTIL   0/180
FILEFIND   0/209
FILEGATE   0/212
Möte HAM, 16712 texter
 lista första sista föregående nästa
Text 3380, 885 rader
Skriven 2009-12-18 00:30:22 av Amsat List (1:323/120.0)
Ärende: [keps]  orb09351.amsa
=============================
[keps]  orb09351.amsa

Return-Path: <keps-bounces@amsat.org>
X-Rcpt: craig.healy@chowda.com
X-UIDL: 1261112622.27855

SB KEPS @ AMSAT  $ORB09351.O
Orbital Elements  09351.OSCAR

HR AMSAT ORBITAL ELEMENTS FOR OSCAR SATELLITES
FROM WA5QGD FORT WORTH,TX December 17, 2009
Send Subscribe/unsubscribe to KEPS at 
http://www.amsat.org/mailman/listinfo/keps
BID: ORB09351.O
TO ALL RADIO AMATEURS BT

Satellite: AO-07
Catalog number: 07530
Epoch time:      09351.64335043
Element set:     656
Inclination:      101.4135 deg
RA of node:       009.4871 deg
Eccentricity:    0.0011853
Arg of perigee:   270.3211 deg
Mean anomaly:     089.6501 deg
Mean motion:   12.53577207 rev/day
Decay rate:       -2.7e-07 rev/day^2
Epoch rev:           60570
Checksum:              270

Satellite: FO-29
Catalog number: 24278
Epoch time:      09350.88591972
Element set:     201
Inclination:      098.5233 deg
RA of node:       200.1089 deg
Eccentricity:    0.0349863
Arg of perigee:   236.7028 deg
Mean anomaly:     120.0150 deg
Mean motion:   13.52946594 rev/day
Decay rate:       -2.1e-07 rev/day^2
Epoch rev:           65845
Checksum:              314

Satellite: SO-33
Catalog number: 25509
Epoch time:      09349.43685421
Element set:    0609
Inclination:      031.4287 deg
RA of node:       107.5870 deg
Eccentricity:    0.0353803
Arg of perigee:   123.2509 deg
Mean anomaly:     240.2564 deg
Mean motion:   14.28272870 rev/day
Decay rate:        6.9e-07 rev/day^2
Epoch rev:           58176
Checksum:              314

Satellite: RS-22
Catalog number: 27939
Epoch time:      09350.63019888
Element set:    0964
Inclination:      097.9161 deg
RA of node:       218.5664 deg
Eccentricity:    0.0012600
Arg of perigee:   278.1446 deg
Mean anomaly:     081.8335 deg
Mean motion:   14.63365620 rev/day
Decay rate:        3.3e-07 rev/day^2
Epoch rev:           33225
Checksum:              315

Satellite: VO-52
Catalog number: 28650
Epoch time:      09350.73157977
Element set:    0387
Inclination:      097.7218 deg
RA of node:       046.0397 deg
Eccentricity:    0.0027753
Arg of perigee:   151.2281 deg
Mean anomaly:     209.0500 deg
Mean motion:   14.81657206 rev/day
Decay rate:       4.76e-06 rev/day^2
Epoch rev:           24967
Checksum:              327

Satellite: SO-67
Catalog number: 35870
Epoch time:      09351.69636703
Element set:     267
Inclination:      097.3599 deg
RA of node:       040.0046 deg
Eccentricity:    0.0011168
Arg of perigee:   342.3195 deg
Mean anomaly:     164.3158 deg
Mean motion:   15.22886949 rev/day
Decay rate:       4.45e-06 rev/day^2
Epoch rev:            1384
Checksum:              330

Satellite: XW-1
Catalog number: 36122
Epoch time:      09351.81668790
Element set:      11
Inclination:      100.4984 deg
RA of node:       048.8858 deg
Eccentricity:    0.0007078
Arg of perigee:   033.0791 deg
Mean anomaly:     327.0545 deg
Mean motion:   13.16281805 rev/day
Decay rate:       -4.5e-07 rev/day^2
Epoch rev:              35
Checksum:              282

/EX
SB KEPS @ AMSAT  $ORB09351.D
Orbital Elements  09351.MICROS

HR AMSAT ORBITAL ELEMENTS FOR THE MICROSATS
FROM WA5QGD FORT WORTH,TX December 17, 2009
Send Subscribe/unsubscribe to KEPS at 
http://www.amsat.org/mailman/listinfo/keps
BID: ORB09351.D
TO ALL RADIO AMATEURS BT

Satellite: UO-11
Catalog number: 14781
Epoch time:      09349.70834031
Element set:    0128
Inclination:      098.0839 deg
RA of node:       035.6321 deg
Eccentricity:    0.0010222
Arg of perigee:   110.0211 deg
Mean anomaly:     250.2182 deg
Mean motion:   14.79754460 rev/day
Decay rate:       2.81e-06 rev/day^2
Epoch rev:           38467
Checksum:              271

Satellite: AO-16
Catalog number: 20439
Epoch time:      09350.87244367
Element set:    0775
Inclination:      098.3062 deg
RA of node:       311.2153 deg
Eccentricity:    0.0010887
Arg of perigee:   353.3541 deg
Mean anomaly:     006.7497 deg
Mean motion:   14.31842579 rev/day
Decay rate:        2.1e-07 rev/day^2
Epoch rev:           03929
Checksum:              308

Satellite: LO-19
Catalog number: 20442
Epoch time:      09350.82975215
Element set:    0683
Inclination:      098.2680 deg
RA of node:       317.7174 deg
Eccentricity:    0.0011568
Arg of perigee:   348.4243 deg
Mean anomaly:     011.6675 deg
Mean motion:   14.32076165 rev/day
Decay rate:        4.1e-07 rev/day^2
Epoch rev:           03945
Checksum:              305

Satellite: AO-27
Catalog number: 22825
Epoch time:      09351.56057320
Element set:     410
Inclination:      098.4632 deg
RA of node:       299.4358 deg
Eccentricity:    0.0009226
Arg of perigee:   085.3611 deg
Mean anomaly:     274.8620 deg
Mean motion:   14.29280776 rev/day
Decay rate:       -8.8e-07 rev/day^2
Epoch rev:           84610
Checksum:              316

Satellite: IO-26
Catalog number: 22826
Epoch time:      09350.67847836
Element set:     144
Inclination:      098.4559 deg
RA of node:       299.2526 deg
Eccentricity:    0.0009876
Arg of perigee:   082.1846 deg
Mean anomaly:     278.0458 deg
Mean motion:   14.29534847 rev/day
Decay rate:        6.0e-08 rev/day^2
Epoch rev:           84608
Checksum:              362

Satellite: GO-32
Catalog number: 25397
Epoch time:      09351.64198502
Element set:      65
Inclination:      098.3171 deg
RA of node:       004.0658 deg
Eccentricity:    0.0002104
Arg of perigee:   083.7661 deg
Mean anomaly:     276.3757 deg
Mean motion:   14.23168905 rev/day
Decay rate:       1.25e-06 rev/day^2
Epoch rev:           59422
Checksum:              301

